Location: Bruderhein
(53.8035°N, 112.9265°W)
Time: 07:04:32
(UTC+00:00)

First-Move - Pass Details

Date: 26 April 2024
Orbit: 538 x 600 km, 97.7° (Epoch: 19 May)

Event Time Altitude Azimuth Distance (km) Brightness Sun altitude
Rises 10:27:31 0° 20° (NNE) 2,875 ? -12.5°
Reaches altitude 10° 10:29:52 10° 30° (NNE) 1,970 ? -12.3°
Maximum altitude 10:33:48 34° 96° (E) 1,004 ? -11.9°
Drops below altitude 10° 10:37:42 10° 162° (SSE) 1,955 ? -11.5°
Enters shadow 10:40:01 - 172° (S) 2,844 ? -11.2°
